Вернуться в каталог

STARLINK-36597

АктивенСвязьSSO
NORAD 67613·PAYLOAD·🇺🇸 United States

Запущен Jan 29, 2026 с Vandenberg Space Force Base

Loading…

Ближайшие Пролёты (ближайшие 24 часа)

TLE

СвежийSource: CelesTrak SupGP

Эпоха: Sep 15, 2026, 02:42 UTC

1 67613C 26018AA  26258.11298611  .00007745  00000+0  24038-3 0  2582
2 67613  97.2855 321.5972 0000717  84.9796 194.5258 15.33440035    11

Отслеживайте STARLINK-36597 в реальном времени с AllMySat

Download on the App Store